Theta_e
292 292 293 293 293 293 293 294 294 294 295 295 295 296 296 297 299 299 300 300 301 302 302 302 303 303 305 304 304 304 303 303 305 305 304 302 304 305 305 309 307 305 310 310 309 309 308 302 302 306 303 300 297 296
292 293 293 293 293 293 293 294 294 295 295 295 296 296 298 299 299 300 300 300 301 302 302 303 303 304 305 305 302 302 302 302 302 302 303 302 304 306 309 312 310 312 309 308 306 304 300 301 303 301 300 297 295 294
293 293 293 293 293 294 294 295 295 295 295 295 297 298 298 298 299 299 300 300 301 302 302 302 303 303 305 306 304 301 302 302 302 304 305 306 305 307 308 307 308 307 307 303 301 300 300 301 300 299 298 297 295 294
295 295 293 293 294 294 294 294 294 294 296 299 300 301 300 299 299 299 300 301 301 302 302 302 301 302 302 303 302 302 302 303 304 305 305 305 306 307 307 307 307 305 304 302 301 300 299 299 299 298 297 297 295 294
294 294 294 294 294 295 295 294 300 302 301 302 301 301 302 302 300 300 300 301 301 302 302 301 301 301 302 302 304 302 303 304 304 304 304 305 304 305 304 305 305 304 303 300 300 298 297 297 296 295 294 294 293 293
295 294 295 295 294 295 300 300 301 301 304 307 307 306 303 304 301 301 302 301 302 302 301 302 300 301 301 303 304 304 304 303 302 302 304 303 306 304 303 303 304 303 302 301 299 296 295 295 295 293 292 292 292 291
295 295 295 296 298 299 300 301 302 301 301 303 304 305 304 302 301 301 301 302 302 302 301 302 302 301 302 303 302 302 303 302 302 302 301 303 303 304 300 304 303 300 298 296 295 295 295 294 294 293 293 292 291 290
295 294 295 295 296 298 300 301 301 300 301 302 302 302 301 302 301 301 301 301 301 301 301 302 303 303 301 301 301 301 301 301 301 302 301 302 302 303 301 302 300 299 298 297 295 296 294 294 293 292 291 289 289 287
295 296 296 297 298 299 300 301 300 300 301 300 301 301 301 301 300 300 301 302 302 302 301 301 302 302 301 301 300 300 301 301 300 301 301 302 301 301 302 300 299 298 298 297 297 294 294 293 292 290 289 288 287 286
294 294 295 296 296 297 298 299 300 300 300 299 299 298 297 298 302 302 302 300 302 302 302 301 300 301 301 300 301 300 300 300 301 301 300 300 301 302 301 299 298 298 298 298 296 295 293 291 290 289 288 287 286 285
293 293 295 295 295 296 297 298 299 299 297 299 298 298 297 300 303 301 297 299 300 301 301 300 301 302 301 302 301 300 300 300 303 301 300 300 301 299 299 298 297 298 298 296 295 293 292 290 289 288 287 286 284 283
293 293 294 294 295 295 294 295 296 298 299 300 299 300 301 302 300 299 297 299 298 302 301 301 300 301 301 300 299 300 301 300 304 299 299 300 299 299 298 297 297 297 297 296 295 293 291 290 290 287 286 285 283 282
292 293 292 293 294 297 298 298 298 299 299 296 299 298 300 298 298 297 298 300 299 299 300 301 301 299 300 299 297 299 299 299 298 296 298 300 297 298 296 296 295 295 294 294 293 292 291 289 288 286 282 282 282 280
291 291 292 293 294 295 295 297 298 298 299 298 297 296 298 297 299 301 301 300 298 300 301 300 299 299 296 297 298 298 298 300 299 297 303 300 297 294 295 294 292 288 290 289 287 286 284 282 281 282 282 282 280 277
291 292 292 292 294 296 296 297 297 297 298 296 297 297 297 297 298 296 295 299 300 299 298 299 299 299 297 299 299 298 300 298 299 299 301 297 294 292 292 291 288 284 282 282 282 280 279 280 279 279 280 280 278 276
292 292 292 294 294 296 296 296 296 297 296 296 297 296 295 295 299 301 299 301 298 296 297 299 300 297 299 298 300 298 301 300 301 298 297 295 292 291 290 289 288 285 283 281 281 280 280 279 278 278 277 277 276 276
290 290 291 295 295 296 296 296 296 295 296 297 297 296 293 298 299 298 299 297 295 298 298 299 298 301 299 299 301 300 301 298 295 294 294 293 292 291 289 287 287 285 284 282 280 280 279 279 279 278 276 276 276 276
292 292 292 293 296 295 296 296 294 295 296 296 297 296 296 295 297 297 296 294 296 297 297 299 299 301 296 300 298 297 294 293 293 293 292 291 290 289 288 287 287 285 283 281 280 280 280 279 279 279 278 277 278 277
292 293 293 294 294 294 294 295 296 295 296 296 296 296 296 295 294 294 295 296 299 300 297 297 299 298 300 299 298 294 292 292 291 291 290 289 288 287 286 286 286 284 282 281 281 281 280 280 280 280 279 279 279 279
292 293 294 294 294 294 294 294 296 295 296 296 296 297 296 295 293 295 296 295 298 297 298 300 300 298 297 295 295 294 292 290 289 289 288 287 287 286 286 285 285 283 282 282 282 282 281 282 282 282 281 280 281 281
292 292 293 294 293 294 294 293 293 295 295 296 296 296 296 295 295 295 296 296 297 298 298 296 295 293 293 294 294 292 290 289 288 288 288 287 286 286 285 286 284 283 283 283 283 283 282 283 283 283 283 282 281 279
291 292 293 293 293 293 292 293 293 293 294 295 295 296 297 294 293 293 294 296 297 296 296 292 291 290 290 293 292 292 292 291 291 288 287 287 287 286 286 285 284 284 284 284 284 284 284 284 283 282 281 279 278 277
290 291 293 293 289 289 291 293 292 293 293 294 294 295 293 292 293 293 297 295 294 292 293 293 292 292 291 291 292 292 292 291 289 288 287 288 287 287 286 286 285 286 285 286 285 284 283 283 282 281 279 278 277 276
290 291 289 290 291 289 291 291 293 294 293 294 294 293 294 292 292 294 298 295 292 291 291 292 292 290 290 290 288 288 290 290 289 288 288 287 287 286 286 286 286 286 285 285 284 283 282 281 280 279 279 277 275 274
287 287 288 288 291 289 289 290 292 293 292 293 293 293 292 293 293 294 296 293 290 289 290 291 291 291 290 288 288 288 289 289 288 287 287 287 286 285 285 285 285 285 285 283 282 281 280 280 279 279 278 276 275 273
287 287 289 290 290 291 292 290 291 292 292 291 291 293 293 293 292 295 293 290 289 288 288 288 289 290 289 289 287 286 287 288 287 286 285 286 286 285 283 281 281 283 283 282 281 280 279 279 277 277 275 274 273 272
285 287 291 291 292 293 289 291 293 291 291 291 292 294 294 290 293 291 288 286 287 286 286 286 288 288 286 284 283 284 286 286 284 282 282 284 285 284 283 282 282 282 282 281 280 279 278 276 274 273 271 271 270 270
290 290 285 288 289 290 289 288 289 290 291 292 291 291 291 291 291 288 286 285 285 285 285 285 286 286 284 283 282 282 281 282 282 281 281 280 281 282 282 281 281 281 281 280 279 279 277 275 273 271 270 268 267 267
289 290 287 281 284 288 288 289 290 290 289 292 293 290 291 287 286 285 284 284 285 284 284 283 283 283 283 282 282 281 281 281 280 275 275 275 276 275 277 278 278 278 278 277 276 276 274 273 272 270 268 266 264 264
288 289 287 285 284 288 290 290 291 288 286 288 287 286 285 285 283 283 283 284 285 286 286 284 283 283 283 282 282 282 282 282 282 281 276 276 276 275 276 275 275 275 274 274 273 271 271 270 268 266 265 264 264 263
289 289 288 288 287 289 287 287 286 286 287 288 287 288 289 284 282 280 280 280 281 284 284 284 284 284 283 283 282 280 279 279 281 284 283 279 276 275 273 273 272 271 271 270 269 268 267 266 266 265 265 264 263 262
288 289 289 288 289 288 287 287 288 288 289 288 288 288 287 287 285 278 275 277 280 281 283 284 284 280 282 283 283 282 280 278 278 278 278 276 274 273 273 272 270 269 269 268 268 267 266 265 264 263 262 262 261 261
290 289 289 289 290 290 288 287 289 288 287 284 287 286 286 283 280 275 275 276 276 277 277 278 279 279 279 279 278 277 277 276 276 276 275 275 274 272 271 270 270 269 268 267 267 266 265 264 263 262 262 260 260 259
Wind_Speed
40 38 36 37 36 38 39 40 42 43 45 46 47 48 50 51 55 50 46 37 32 8 7 14 20 9 6 13 5 6 4 3 6 5 5 4 4 5 8 8 7 10 8 4 4 3 7 3 2 3 2 8 11 12
46 47 43 39 37 37 38 40 44 46 50 51 52 51 52 55 56 56 27 41 35 12 2 20 21 20 21 25 6 9 5 8 5 4 4 3 4 2 2 2 9 4 4 4 2 2 3 3 3 7 9 9 8 11
53 51 42 39 36 36 38 40 45 50 53 58 56 57 61 64 63 65 49 34 32 11 6 4 3 7 19 21 28 5 2 6 3 3 1 2 4 2 2 3 4 2 5 4 4 4 5 5 7 9 10 11 10 11
31 37 39 35 32 32 39 41 45 50 53 51 55 61 70 72 70 69 52 44 39 5 3 2 4 16 12 22 13 9 8 7 5 3 4 3 2 2 1 1 3 3 5 6 4 7 7 6 6 8 10 9 11 11
25 26 25 26 28 29 30 34 13 9 22 40 61 70 66 72 74 71 54 47 48 8 3 2 1 5 8 15 5 16 3 3 3 1 3 3 2 3 2 3 2 2 5 4 3 11 4 10 10 10 11 10 10 9
21 19 16 20 19 23 17 17 10 18 29 28 27 49 68 72 78 57 9 44 52 17 3 3 2 2 7 11 6 4 10 3 3 3 3 0 1 3 3 2 2 4 6 3 4 6 10 14 10 11 11 11 12 11
22 20 17 10 11 23 25 23 28 33 47 62 63 58 65 72 57 16 9 31 52 20 3 3 3 2 17 15 6 2 5 3 3 2 2 4 2 3 2 3 6 6 12 13 14 17 9 12 7 12 14 14 16 14
23 21 19 20 21 21 27 38 38 45 51 57 60 65 63 55 49 26 46 46 39 8 3 3 3 2 5 3 2 1 2 2 3 2 2 3 2 2 2 7 10 10 13 13 12 4 12 12 15 11 14 14 10 10
29 25 27 29 29 28 35 41 39 46 47 48 51 48 46 35 12 17 34 23 15 8 4 2 4 4 4 3 3 2 2 2 2 1 2 3 1 2 8 12 13 13 7 10 9 11 12 14 13 11 10 10 10 9
32 30 31 31 34 33 31 32 32 31 31 25 22 8 4 5 32 28 9 3 4 3 2 3 3 4 7 3 2 3 2 3 2 4 1 2 1 2 11 10 11 8 11 11 14 13 13 10 11 9 8 10 13 11
35 35 33 31 28 25 23 21 19 15 9 7 4 5 16 11 5 4 3 4 2 3 2 3 9 9 3 4 3 2 3 2 3 3 4 1 1 1 12 10 8 10 10 9 8 8 10 10 9 7 9 16 19 19
34 35 32 21 18 18 17 12 11 14 10 12 15 13 5 3 3 6 2 1 4 4 3 9 8 5 3 4 3 1 2 2 2 2 3 1 2 9 11 9 8 9 13 10 15 11 17 17 17 16 16 17 17 20
38 28 27 25 19 22 24 24 23 22 19 8 7 5 3 3 6 5 4 2 3 3 5 6 6 4 3 3 2 3 3 2 1 2 3 2 5 9 9 6 7 14 16 14 15 19 21 19 21 23 20 22 24 22
30 30 31 26 22 19 19 15 14 11 12 4 4 6 4 4 4 2 2 3 3 7 9 6 3 3 2 3 2 4 2 3 2 2 3 2 8 6 7 6 11 6 11 12 14 18 19 23 21 22 24 24 23 22
24 26 28 27 20 18 17 15 16 12 5 4 4 4 4 1 2 2 2 6 7 5 4 4 3 3 2 3 1 3 2 2 3 3 2 5 8 9 10 9 10 8 7 11 16 16 19 22 22 21 19 19 21 21
16 22 25 20 18 13 11 14 14 6 4 4 6 4 2 3 3 4 6 7 2 2 2 3 3 3 1 4 2 4 5 2 2 2 3 7 8 9 10 9 10 14 14 16 19 19 21 21 21 22 18 18 18 19
22 12 16 16 20 22 14 8 8 6 4 4 3 3 3 3 4 3 3 2 2 3 1 3 4 2 3 2 2 3 2 2 4 2 3 7 8 9 10 13 14 16 16 17 18 18 19 20 24 21 16 16 16 14
13 17 15 11 9 13 16 10 4 4 6 3 3 3 2 3 3 4 3 2 2 1 2 2 3 3 2 3 1 3 3 3 4 4 4 7 9 12 14 14 13 14 15 17 17 19 20 19 15 13 16 18 14 14
18 16 14 13 9 5 4 6 6 4 4 2 2 2 2 2 2 2 2 4 2 2 3 3 5 3 2 2 3 5 5 2 3 3 5 10 14 15 15 15 14 14 18 18 17 15 17 17 16 17 18 19 15 17
13 18 17 17 7 5 4 4 5 4 3 2 2 3 2 1 2 2 3 3 2 3 5 4 3 2 2 2 3 4 5 7 6 6 5 5 12 15 13 13 11 15 16 16 15 16 16 15 17 20 19 20 12 15
15 18 15 10 7 12 4 3 4 2 2 2 3 2 2 2 3 4 4 4 5 3 3 3 3 3 7 9 12 11 10 12 6 5 5 6 11 12 13 13 18 16 13 13 13 16 16 11 19 22 21 20 21 20
11 13 7 10 5 4 4 9 2 2 3 1 2 3 2 2 2 3 3 4 3 3 2 2 2 2 4 4 7 12 13 14 17 17 17 17 6 8 8 14 17 13 16 14 18 18 14 15 23 22 21 19 16 14
9 8 7 9 6 5 2 6 3 3 3 1 2 3 3 2 2 3 3 2 2 3 4 7 8 15 10 13 11 9 14 18 11 13 14 12 14 15 15 16 15 13 12 13 17 16 19 21 21 22 20 17 15 14
8 5 5 4 4 1 1 4 2 2 3 3 2 3 2 2 3 2 3 2 2 3 4 4 8 4 6 10 4 9 13 17 14 15 17 15 11 11 14 11 11 13 16 17 18 21 22 20 19 18 16 15 14 17
6 7 4 4 3 4 4 3 4 3 2 2 3 2 1 1 2 2 2 2 1 2 3 7 5 3 6 3 6 7 8 13 11 7 14 15 16 15 15 14 12 14 20 22 18 20 19 18 16 15 16 17 18 18
6 4 4 3 4 3 2 2 2 2 2 3 3 1 2 1 2 3 2 1 2 2 3 3 2 4 4 7 5 7 9 16 20 13 11 13 16 15 12 9 9 10 14 19 21 20 18 17 18 17 17 16 15 16
5 4 3 3 2 2 3 3 2 3 2 3 2 2 1 1 2 2 1 3 2 4 5 8 9 9 8 11 14 13 12 18 17 17 16 15 14 15 17 17 13 9 13 14 15 19 20 20 18 17 16 14 11 10
2 4 3 3 3 3 2 3 2 2 2 3 2 2 2 3 2 1 2 4 5 5 6 9 13 13 14 14 14 17 20 22 21 20 20 20 17 17 17 18 17 16 16 16 17 17 17 17 17 16 14 12 10 8
3 2 3 4 4 2 2 2 2 2 3 1 2 2 2 2 2 3 4 3 5 7 8 9 10 11 12 13 11 12 15 16 17 7 7 4 6 10 15 18 18 18 18 19 16 15 15 15 14 13 12 13 12 11
1 2 2 2 2 2 2 3 2 2 2 2 1 2 2 2 3 4 3 2 2 1 7 12 12 12 10 10 11 11 9 8 10 10 6 6 12 16 14 15 16 17 16 16 18 18 15 14 14 14 14 13 11 10
2 1 2 0 2 2 2 1 1 1 1 1 1 1 2 3 4 5 5 4 4 3 4 7 7 12 13 12 10 10 7 3 3 6 16 20 21 18 16 15 15 16 17 18 17 17 17 16 16 16 15 13 10 7
0 2 1 2 2 2 0 1 1 2 2 2 2 2 2 2 3 2 7 7 4 5 6 9 10 9 12 12 13 10 9 12 15 18 21 22 22 20 17 16 17 18 17 16 16 15 14 15 14 13 14 12 8 5
1 1 1 2 1 2 2 2 2 1 1 0 1 3 2 2 2 2 3 6 9 12 13 18 18 15 14 16 18 19 19 19 18 19 21 21 21 20 19 19 18 16 17 18 16 15 14 14 14 12 10 9 8 5
Wind_Direction
242 238 241 242 240 240 238 237 237 238 237 234 232 231 227 220 214 207 214 207 205 228 245 227 259 265 261 210 160 148 113 293 164 166 195 199 227 235 234 196 178 176 174 190 194 219 253 35 45 172 145 72 86 72
242 241 240 240 240 241 240 242 245 243 244 241 237 230 220 210 207 203 214 208 205 216 224 248 255 303 206 253 136 173 180 172 167 158 209 168 277 300 216 161 184 206 163 150 122 144 85 32 23 58 84 88 80 98
240 236 232 232 236 241 246 248 252 253 251 250 240 229 219 213 207 201 205 193 193 201 258 296 275 290 191 189 171 132 240 170 176 179 85 266 227 177 215 249 101 74 102 94 125 145 135 107 72 85 86 94 102 103
211 210 212 224 234 245 254 253 254 253 252 242 231 223 218 209 199 195 196 190 187 131 199 235 143 257 106 143 156 158 142 166 146 132 223 254 249 21 66 147 89 188 112 120 83 123 127 133 117 109 106 110 120 122
174 188 209 223 240 239 237 255 226 250 257 240 228 220 205 195 189 185 189 185 183 163 133 137 183 37 109 135 89 137 123 170 111 203 191 224 200 81 355 74 77 22 152 155 197 173 140 157 129 127 125 114 107 115
173 181 190 191 207 247 162 126 64 43 43 172 162 189 186 179 173 166 163 183 179 163 124 141 262 140 109 113 131 186 186 161 156 165 206 158 199 112 136 115 114 89 69 130 130 107 118 132 128 133 130 125 124 128
146 153 153 156 113 134 132 116 83 71 60 79 104 129 143 147 145 144 147 155 172 179 109 111 94 213 171 166 180 175 181 197 159 207 160 150 189 97 106 151 137 94 105 104 112 107 102 146 157 150 140 151 154 133
122 119 118 116 117 123 115 113 90 87 84 86 94 105 114 118 110 106 122 140 159 118 101 113 93 128 152 126 107 137 110 64 1 161 22 120 69 104 98 134 127 122 120 127 152 156 151 150 152 153 155 137 127 120
110 101 94 103 107 110 110 106 91 91 87 86 93 98 93 93 102 123 129 121 102 116 118 102 122 134 159 156 121 43 120 61 297 133 238 120 180 210 167 151 145 147 147 160 151 128 139 150 159 153 142 143 134 130
88 93 95 96 92 93 94 102 109 111 95 79 67 48 50 49 121 113 94 51 39 27 76 112 99 132 145 141 113 122 133 159 154 236 89 88 263 189 145 141 144 147 143 151 141 153 162 155 143 151 154 138 138 124
87 90 99 99 90 86 90 93 103 107 63 43 49 67 119 115 64 53 59 97 117 81 76 120 141 134 144 112 143 151 174 178 146 235 130 223 198 150 139 137 151 134 142 148 146 140 141 142 145 140 128 128 127 131
84 87 89 91 88 80 84 93 88 75 71 96 107 118 113 61 60 83 79 16 88 155 153 141 140 134 86 96 99 316 122 40 173 173 95 207 224 134 129 131 134 137 144 154 152 143 141 142 141 125 127 128 126 137
77 84 74 83 88 87 81 82 90 102 106 72 51 56 56 343 62 107 148 78 101 153 132 131 109 119 56 53 53 90 115 194 41 64 199 204 146 126 130 126 108 107 106 100 111 127 130 124 131 133 123 138 140 141
76 71 65 66 73 69 60 66 72 78 52 60 54 44 52 23 49 14 37 103 180 119 120 117 78 110 113 66 149 95 216 100 162 123 190 158 139 122 105 106 107 86 106 100 103 109 112 118 121 136 144 148 146 143
73 69 59 53 64 64 60 62 69 65 65 61 39 56 54 58 19 322 306 105 109 109 93 89 65 88 105 119 170 124 138 195 200 175 110 129 120 120 109 109 110 102 103 106 116 115 120 124 126 131 142 149 150 146
69 60 37 48 58 64 77 72 55 59 57 63 41 49 29 68 33 61 92 100 52 107 74 80 113 89 117 140 113 190 165 150 132 88 93 117 111 117 113 110 109 109 110 112 122 128 134 135 135 136 141 148 152 153
57 27 21 40 56 56 55 63 42 47 54 48 39 357 49 49 48 52 41 3 322 72 161 98 77 171 135 98 67 25 68 93 117 90 81 115 118 119 117 114 111 116 114 123 133 140 136 140 140 137 135 154 155 159
48 31 33 33 45 42 44 38 67 63 54 35 66 48 32 13 52 38 346 337 44 70 57 129 134 79 108 96 69 127 105 79 71 89 102 108 113 117 120 117 121 123 126 141 143 141 143 143 145 151 154 159 158 166
44 46 44 43 55 68 57 27 49 78 37 31 25 25 39 38 344 289 317 323 331 116 101 50 54 52 65 61 99 118 133 124 124 98 98 108 118 118 118 130 141 131 143 148 151 154 161 164 165 163 166 170 175 184
43 45 42 48 70 73 63 22 38 69 45 34 19 42 54 61 274 343 336 337 1 57 41 45 40 35 74 9 81 106 106 120 124 118 109 107 116 120 134 151 150 143 148 156 159 161 172 187 182 172 177 183 170 151
35 24 31 44 55 57 70 48 49 88 112 57 319 70 57 9 14 10 4 348 47 33 67 55 54 34 50 96 107 127 141 143 159 155 147 136 134 134 154 155 150 155 162 172 166 171 185 192 146 144 136 131 138 131
5 23 30 38 63 59 62 10 92 149 74 209 21 61 48 42 18 355 308 53 53 13 18 110 139 111 47 64 87 96 103 99 114 122 131 138 140 152 151 149 160 165 172 181 169 175 181 150 142 139 135 135 139 132
17 30 42 33 60 47 320 334 61 21 76 6 12 57 33 31 339 319 78 66 76 341 41 75 78 98 93 95 94 91 109 106 108 123 136 138 144 146 145 162 175 165 163 164 171 150 132 143 146 142 141 140 140 136
24 51 41 39 52 62 357 14 39 55 39 34 64 61 48 4 312 42 74 72 23 10 36 28 115 103 102 82 46 42 99 113 110 107 120 120 118 131 148 150 154 161 159 152 149 140 141 143 145 146 151 153 150 143
60 353 55 19 347 57 52 29 356 54 60 76 68 61 7 325 38 59 87 104 69 26 7 358 44 87 114 100 85 44 69 130 116 112 125 131 121 116 111 113 124 143 155 141 132 137 143 144 147 148 146 139 139 144
65 336 53 18 349 58 57 63 38 59 87 69 57 61 332 25 61 58 58 70 73 45 26 22 4 84 72 105 112 68 41 125 121 95 86 142 145 136 125 119 106 92 154 157 150 147 144 147 141 137 132 135 138 138
49 21 5 334 356 48 44 23 1 75 64 94 122 165 195 94 89 92 129 24 83 69 65 44 36 112 114 99 93 88 100 128 123 114 109 119 130 149 154 145 129 127 156 158 158 157 154 146 143 140 135 133 129 155
67 38 80 312 32 12 62 7 51 44 49 341 74 59 83 37 74 56 68 85 96 116 94 81 91 112 120 121 122 120 116 121 122 118 106 93 99 118 133 137 140 142 143 150 156 161 158 157 153 151 149 144 140 147
46 356 79 11 346 27 27 33 49 48 334 336 46 59 88 72 30 84 102 124 146 144 126 104 100 117 118 123 131 144 136 141 135 114 106 116 103 93 128 133 135 137 137 135 137 144 149 152 154 150 143 136 131 127
38 339 56 57 83 31 62 358 54 30 0 17 23 103 98 98 67 79 118 124 272 217 153 161 158 152 148 145 148 137 136 149 176 161 153 154 148 153 150 143 142 143 144 146 139 131 141 142 136 132 131 133 138 142
36 5 351 35 90 65 61 20 217 252 310 44 30 83 84 121 111 58 53 29 25 75 135 159 186 179 168 166 149 129 104 88 135 163 172 155 154 150 149 148 146 143 141 137 134 132 129 128 130 134 138 138 139 145
104 268 341 356 94 127 284 273 266 248 183 177 207 148 139 180 138 73 11 16 343 295 268 197 152 99 139 171 183 185 180 147 133 134 140 142 144 148 146 139 139 136 134 133 133 134 137 138 139 139 138 143 148 145
315 17 323 322 179 170 94 329 226 276 116 161 76 19 60 57 102 130 46 50 59 57 73 96 118 128 129 130 131 133 135 136 137 139 141 144 143 143 143 143 144 143 141 138 138 140 139 137 136 140 139 137 136 138